Location: Unspecified
(0.0000°N, 0.0000°E)
Time: 06:34:40
(UTC+00:00)

Vanguard 1 Rocket - Visible Passes

Search period start: 19 June 2018 00:00
Search period end: 29 June 2018 00:00
Orbit: 653 x 4224 km, 34.3° (Epoch: 18 June)

Date Brightness Start Highest point End Pass type
(mag) Time Alt. Az. Time Alt. Az. Time Alt. Az.
19 Jun 11.0 01:33:16 39° SE 01:33:16 39° SE 01:46:30 10° SE visible
19 Jun 10.7 03:50:39 36° SW 03:55:04 38° SSW 04:17:20 10° SSE visible
19 Jun 10.5 21:28:06 10° N 21:35:58 23° NE 21:35:58 23° NE visible
19 Jun 10.8 23:50:46 10° NW 00:26:55 17° ESE 00:30:40 10° ESE visible
20 Jun 10.7 02:44:17 46° S 02:44:17 46° S 03:03:36 10° SE visible
20 Jun 11.2 05:01:38 15° WSW 05:16:45 24° SSW 05:33:40 10° SSE visible
20 Jun 10.2 22:40:12 10° NNW 22:45:19 32° NNW 22:45:19 32° NNW visible
21 Jun 11.1 01:37:44 33° SE 01:37:44 33° SE 01:49:02 10° SE visible
21 Jun 10.9 03:55:04 31° SW 03:59:00 32° SSW 04:20:08 10° SSE visible
21 Jun 10.2 21:30:33 10° NNW 21:37:33 29° NNE 21:37:33 29° NNE visible
21 Jun 10.9 23:53:53 10° NW 00:31:02 14° SE 00:33:29 10° SE visible
22 Jun 10.9 02:48:22 38° S 02:48:22 38° S 03:06:07 10° SE visible
22 Jun 11.3 05:05:43 12° SW 05:21:36 22° SSW 05:37:24 10° SSE visible
22 Jun 10.5 20:22:44 10° NNE 20:27:20 14° NE 20:29:51 13° NE visible
22 Jun 10.2 22:43:05 10° NW 22:47:05 30° NNW 22:47:05 30° NNW visible
23 Jun 11.2 01:41:33 29° SSE 01:41:33 29° SSE 01:51:28 10° SE visible
23 Jun 11.0 03:58:52 27° SSW 04:03:21 28° SSW 04:23:11 10° SSE visible
23 Jun 9.9 21:33:10 10° NNW 21:39:27 34° NNE 21:39:27 34° NNE visible
24 Jun 11.1 00:34:37 13° SE 00:34:37 13° SE 00:36:04 10° SE visible
24 Jun 11.0 02:51:56 33° S 02:51:56 33° S 03:08:43 10° SE visible
24 Jun 11.4 05:09:17 10° SW 05:26:44 21° S 05:41:44 10° SE visible
24 Jun 10.2 20:24:29 10° N 20:30:31 19° NE 20:31:53 19° NE visible
24 Jun 10.3 22:46:07 10° NW 22:49:07 25° NW 22:49:07 25° NW visible
25 Jun 11.3 01:44:55 25° SSE 01:44:55 25° SSE 01:53:50 10° SE visible
25 Jun 11.1 04:02:13 23° SSW 04:08:06 24° SSW 04:26:39 10° SE visible
25 Jun 9.6 21:35:57 10° NNW 21:41:36 40° N 21:41:36 40° N visible
26 Jun 11.2 00:37:50 11° SE 00:37:50 11° SE 00:38:28 10° SE visible
26 Jun 11.1 02:55:07 29° S 02:55:07 29° S 03:11:31 10° SE visible
26 Jun 11.4 05:14:25 10° SW 05:31:58 21° S 05:46:40 10° SE visible
26 Jun 9.8 20:26:44 10° N 20:33:31 26° NE 20:34:09 26° NE visible
26 Jun 10.4 22:49:20 10° NW 22:51:24 21° NW 22:51:24 21° NW visible
27 Jun 11.4 01:47:58 23° SSE 01:47:58 23° SSE 01:56:15 10° SE visible
27 Jun 11.2 04:05:15 20° SSW 04:13:09 22° S 04:30:42 10° SE visible
27 Jun 9.5 21:38:52 10° NW 21:43:59 43° NNW 21:43:59 43° NNW visible
28 Jun 11.8 00:40:46 10° SE 00:40:46 10° SE 00:40:47 10° SE visible
28 Jun 11.2 02:58:03 25° S 02:58:03 25° S 03:14:40 10° SE visible
28 Jun 11.4 05:18:48 10° SW 05:37:07 22° S 05:51:59 10° SE visible
28 Jun 9.4 20:29:17 10° NNW 20:36:22 35° NE 20:36:36 35° NE visible
28 Jun 10.6 22:52:45 10° WNW 22:53:52 15° WNW 22:53:52 15° WNW visible
